User: anonymous   Login
Location: Unspecified
(0.0000°N, 0.0000°E)
Time: 10:35:53
(UTC+00:00)
Language:

XW-2E - Orbit

View from above orbital plane
View from above orbital plane
View from above satellite
View from above satellite

Ground track
Ground track

The orbit data is extracted from the following two-line orbital elements,

1 40909U 15049L   18021.46046109 +.00001050 +00000-0 +56928-4 0  9993
2 40909 097.4552 029.0225 0014236 170.2916 189.8595 15.16687352129379
Epoch (UTC): 21 January 2018 11:03:03
Eccentricity: 0.0014236
inclination: 97.4552°
perigee height: 506 km
apogee height: 525 km
right ascension of ascending node: 29.0225°
argument of perigee: 170.2916°
revolutions per day: 15.16687352
mean anomaly at epoch: 189.8595°
orbit number at epoch: 12937

The dashed part of the orbit path shows where the satellite is in the earth's shadow,  

DLR